901  
NZUS52 KFFC 231703  
RWROBS  
WEATHER ROUNDUP FOR GEORGIA  
NATIONAL WEATHER SERVICE PEACHTREE CITY GA  
100 PM EDT FRI JUN 23 2017  
 
NOTE: "FAIR" INDICATES FEW OR NO CLOUDS BELOW 12,000 FEET WITH NO  
SIGNIFICANT WEATHER AND/OR S TO VISIBILITY
.  
 
* = USE WITH CAUTION. THE STATIONS MARKED WITH AN ASTERISK MAY NOT  
REPORT WEATHER SUCH AS PRECIPITATION, FOG, OR THUNDER AND ARE NOT  
QUALITY CONTROLLED BY NWS.  
 
THE REMARK "TC" DENOTES TEMPERATURE READING IN DEGREES CELSIUS.  
 
GAZ001>058-231800-  
NORTH GEORGIA  
 
CITY SKY/WX TMP DP RH WIND PRES REMARKS
 
ATLANTA CLOUDY 85 70 60 SW13G24 30.01F HX 89  
ATHENS MOSUNNY 86 72 62 VRB7G20 30.01F HX 92  
CHAMBLEE CLOUDY 85 69 58 SW14G20 30.01F HX 89  
PEACHTREE CITY MOSUNNY 84 71 65 SW12G20 30.01F HX 89  
ROME MOSUNNY 86 73 65 S16G23 29.93F HX 93  
WEST ATLANTA CLOUDY 84 71 65 S13G23 29.99F HX 89  
GAINESVILLE CLOUDY 82 70 66 S8 30.04F HX 86  
CARTERSVILLE CLOUDY 82 71 69 S12G17 29.97F HX 86  
 
 
CITY SKY/WX TMP DP RH WIND PRES REMARKS
 
DALTON CLOUDY 81 72 74 S10G17 29.95F HX 84  
LAWRENCEVILLE N/A 82 72 69 SW9G21 30.02F HX 87  
MARIETTA PTSUNNY 83 69 63 S10G21 30.00F HX 86  
KENNESAW PTSUNNY 81 72 74 SW8 30.01R HX 84  
WINDER N/A N/A N/A N/A SW9 30.04F  
CANTON FAIR 82 70 65 S13G21 30.02F HX 86  
TOCCOA SUNNY 90 73 58 SW9 30.01F HX 98  
CORNELIA FAIR 81 69 68 SW6 30.04F HX 84  
CANON FAIR 86 72 62 SW12G17 30.02S HX 92  
JASPER FAIR 79 71 76 S6 30.05F HX 82  

 
 
GAZ059>098-102>109-231800-  
CENTRAL GEORGIA  
 
CITY SKY/WX TMP DP RH WIND PRES REMARKS
 
AUGUSTA-BUSH SUNNY 92 71 50 S8G21 30.00F HX 98  
AUGUSTA-DANIEL MOSUNNY 91 65 41 SW13G20 30.02F HX 93  
COLUMBUS MOSUNNY 88 72 58 SW13 29.99F HX 94  
MACON PTSUNNY 87 73 62 SW14G20 30.02F HX 94  
ROBINS AFB PTSUNNY 87 73 62 SW14G20 30.02F HX 94  
GREENSBORO MOSUNNY 88 73 62 S10G16 30.00F HX 96  
THOMSON MOSUNNY 89 71 55 W8 30.06F HX 94  
SANDERSVILLE FAIR N/A N/A N/A W10G17 30.02F  
THOMASTON MOSUNNY 86 66 51 SW15G21 30.04F HX 88  
BUTLER N/A 87 72 60 SW12G17 30.04S HX 93  
 
 
CITY SKY/WX TMP DP RH WIND PRES REMARKS
 
LAGRANGE PTSUNNY 87 74 64 SW10G22 30.00F HX 96  
SYLVANIA PTSUNNY 89 79 73 SW5 30.04F HX 104  
MILLEDGEVILLE PTSUNNY 86 77 74 SW5 30.02S HX 97  
CARROLLTON FAIR 82 70 67 S6G16 30.03F HX 85  
AMERICUS PTSUNNY 86 70 58 SW9 30.05S HX 90  
CORDELE PTSUNNY 91 74 56 SW9 30.04S HX 101  

 
 
GAZ099>101-110>166-231800-  
SOUTH GEORGIA  
 
CITY SKY/WX TMP DP RH WIND PRES REMARKS
 
SAVANNAH PTSUNNY 90 74 59 S10 30.03F HX 99  
VALDOSTA PTSUNNY 87 75 67 CALM 30.03F HX 96  
ALMA PTSUNNY 88 74 63 S9 30.03F HX 96  
ST SIMONS MOSUNNY 86 77 74 S12 30.05S HX 97  
FT STEWART CLOUDY 89 75 62 SE6 30.01F HX 99  
ALBANY PTSUNNY 89 75 63 SW12 30.03F HX 99  
HUNTER AFB MOSUNNY 89 77 67 S5 30.00F HX 100  
MOODY AFB CLOUDY 89 74 61 SE6 30.01F HX 98  
BRUNSWICK PTSUNNY 90 77 66 SW9 30.05F HX 102  
 
 
CITY SKY/WX TMP DP RH WIND PRES REMARKS
 
BAINBRIDGE MOSUNNY 97 82 63 SW9 30.02F HX 121  
MOULTRIE MOSUNNY 86 75 70 W6 30.03F HX 95  
VIDALIA CLOUDY 88 75 66 SW7 30.03F HX 97  
WAYCROSS PTSUNNY 90 81 73 SW7 30.04F HX 109  
DOUGLAS PTSUNNY 88 73 62 SW7 30.05S HX 96  
TIFTON PTSUNNY 87 74 65 SW10G16 30.03F HX 95  
HAZELHURST FAIR 90 77 65 S6 30.02F HX 102  

 
 
 
CLICK HERE TO GO TO PREVIOUS BULLETINS.

The Nexlab GA Page Main Text Page